Ashtabula, OH

1:56 AM EST on December 12, 2019 (GMT -0500)
Ashtabula County

Weather History for KHZY - September, 2019

Change the Weather History Date:

Thursday, September 26, 2019

  Actual Average (KGKJ) Record (KGKJ)
Temperature  
Mean Temperature 60 °F -  
Max Temperature 72 °F 68 °F 89 °F (2017)
Min Temperature 48 °F 44 °F 33 °F (1976)
Degree Days  
Heating Degree Days 5    
Growing Degree Days 10 (Base 50)    
Moisture  
Dew Point 53 °F    
Average Humidity 74    
Maximum Humidity 93    
Minimum Humidity 42    
Precipitation  
Precipitation 0.00 in - - ()
Sea Level Pressure  
Sea Level Pressure 29.86 in    
Wind  
Wind Speed 5 mph (West)    
Max Wind Speed 17 mph    
Max Gust Speed 29 mph    
Visibility 10 miles    
Events      
Averages and records for this station are not official NWS values.
T = Trace of Precipitation, MM = Missing Value Source: NWS Daily Summary

Daily Weather History Graph

Daily Weather History Graph

Search for Another Location

Airport or City:

Astronomy

Sep. 26, 2019 Rise Set
Actual Time 7:14 AM EDT 7:13 PM EDT
Civil Twilight 6:46 AM EDT 7:41 PM EDT
Nautical Twilight 6:13 AM EDT 8:13 PM EDT
Astronomical Twilight 5:41 AM EDT 8:46 PM EDT
Moon 4:15 AM EDT (9/26) 6:28 PM EDT (9/26)
Length of Visible Light 12h 54m
Length of Day
11h 59m
Waning Crescent, 7% of the Moon is Illuminated
Sep 26
Waning Crescent
Sep 28
New
Oct 5
First Quarter
Oct 13
Full
Oct 21
Last Quarter

Hourly Weather History & Observations

Time (EDT) Temp. Dew Point Humidity Pressure Visibility Wind Dir Wind Speed Gust Speed Precip Events Conditions
12:53 AM 66.9 °F 54.0 °F 63% 29.78 in 10.0 mi SSW 6.9 mph - N/A   Mostly Cloudy
1:53 AM 63.0 °F 55.9 °F 78% 29.78 in 10.0 mi Calm Calm - N/A   Partly Cloudy
2:53 AM 64.0 °F 57.0 °F 78% 29.77 in 10.0 mi Calm Calm - N/A   Overcast
3:53 AM 61.0 °F 55.9 °F 83% 29.76 in 10.0 mi Calm Calm - N/A   Clear
4:53 AM 61.0 °F 55.9 °F 83% 29.75 in 10.0 mi Calm Calm - N/A   Mostly Cloudy
5:53 AM 63.0 °F 57.0 °F 81% 29.75 in 10.0 mi SSW 3.5 mph - N/A   Overcast
6:53 AM 63.0 °F 59.0 °F 87% 29.76 in 10.0 mi West 4.6 mph - N/A   Mostly Cloudy
7:15 AM 64.0 °F 60.1 °F 87% 29.79 in 10.0 mi West 6.9 mph - N/A   Overcast
7:27 AM 63.0 °F 60.1 °F 90% 29.79 in 10.0 mi West 4.6 mph - N/A   Overcast
7:53 AM 62.1 °F 60.1 °F 93% 29.80 in 10.0 mi West 4.6 mph - N/A   Overcast
8:53 AM 64.0 °F 62.1 °F 93% 29.80 in 10.0 mi Calm Calm - N/A   Overcast
9:39 AM 64.9 °F 60.1 °F 84% 29.84 in 10.0 mi NW 6.9 mph - N/A   Overcast
9:53 AM 64.9 °F 60.1 °F 84% 29.83 in 10.0 mi Variable 3.5 mph - N/A   Overcast
10:53 AM 66.0 °F 59.0 °F 78% 29.84 in 10.0 mi WNW 6.9 mph - N/A   Overcast
11:53 AM 69.1 °F 54.0 °F 58% 29.86 in 10.0 mi West 17.3 mph 21.9 mph N/A   Partly Cloudy
12:53 PM 69.1 °F 54.0 °F 58% 29.87 in 10.0 mi WNW 16.1 mph 27.6 mph N/A   Partly Cloudy
1:53 PM 70.0 °F 48.9 °F 47% 29.88 in 10.0 mi WNW 10.4 mph 23.0 mph N/A   Scattered Clouds
2:53 PM 69.1 °F 45.0 °F 42% 29.88 in 10.0 mi West 15.0 mph 28.8 mph N/A   Partly Cloudy
3:53 PM 69.1 °F 48.0 °F 47% 29.90 in 10.0 mi West 13.8 mph 21.9 mph N/A   Mostly Cloudy
4:53 PM 68.0 °F 46.0 °F 45% 29.91 in 10.0 mi West 11.5 mph 23.0 mph N/A   Clear
5:53 PM 66.9 °F 45.0 °F 45% 29.94 in 10.0 mi West 11.5 mph - N/A   Clear
6:53 PM 63.0 °F 45.0 °F 52% 29.96 in 10.0 mi West 6.9 mph - N/A   Clear
7:53 PM 57.0 °F 48.0 °F 72% 29.97 in 10.0 mi Calm Calm - N/A   Clear
8:53 PM 54.0 °F 48.9 °F 83% 29.99 in 10.0 mi Calm Calm - N/A   Partly Cloudy
9:53 PM 51.1 °F 48.9 °F 92% 30.00 in 10.0 mi Calm Calm - N/A   Clear
10:53 PM 50.0 °F 48.0 °F 93% 30.01 in 10.0 mi East 3.5 mph - N/A   Clear
11:53 PM 48.0 °F 46.0 °F 93% 30.01 in 10.0 mi Calm Calm - N/A   Clear